contact:dominique.lefevre@mio.osupytheas.fr, maurice.libes@osupytheas.fr, didier.mallarino@osupytheas.fr
Project:EMSO http://www.emso-fr.org/EMSO-France
Depth: 2436.0 m
Title:EMSO Ligure Ouest : Data MII capteur AQUADOPP
Date,Latitude,Longitude,X_East,Y_North,Z_Up,Amplitude_X,Amplitude_Y,Amplitude_Z,Batterie,SoundSpeed,Heading,Pitch,Roll,Pressure,TIS,Speed,Direction
, degrees North, degrees East, m.s-1, m.s-1,m.s-1, 1, 1, 1, Volt, m.s-1, degree, degree, degree, dbar, degree_C, m.s-1, degree
2020-12-17T00:04:03,42.805,6.029,-0.016,0.004,-0.001,102.0,105.0,100.0,13.4,1505.3,324.3,-0.7,1.8,2470.549,13.31,0.016,284.0
2020-12-17T00:07:03,42.805,6.029,-0.065,-0.019,-0.014,102.0,105.0,100.0,13.3,1505.3,325.0,-0.7,1.8,2470.5,13.32,0.067,253.7
2020-12-17T00:10:03,42.805,6.029,-0.053,-0.018,-0.015,102.0,105.0,100.0,13.3,1505.3,327.9,-0.7,1.9,2470.515,13.32,0.055,251.2
2020-12-17T00:13:03,42.805,6.029,-0.026,-0.006,0.012,101.0,105.0,100.0,13.4,1505.3,324.7,-0.7,1.8,2470.53,13.32,0.026,257.0
2020-12-17T00:16:03,42.805,6.029,-0.058,0.011,0.028,102.0,104.0,100.0,13.4,1505.3,323.4,-0.7,1.8,2470.517,13.32,0.059,280.7
2020-12-17T00:19:03,42.805,6.029,-0.029,-0.009,0.015,102.0,105.0,99.0,13.4,1505.3,325.6,-0.7,1.8,2470.51,13.33,0.03,252.8
2020-12-17T00:22:03,42.805,6.029,-0.051,-0.005,0.006,101.0,105.0,100.0,13.4,1505.3,326.3,-0.7,1.8,2470.513,13.33,0.051,264.4
2020-12-17T00:25:03,42.805,6.029,-0.056,0.006,-0.002,102.0,105.0,99.0,13.4,1505.3,327.3,-0.7,1.8,2470.471,13.33,0.056,276.1
2020-12-17T00:28:03,42.805,6.029,-0.027,-0.001,0.039,102.0,105.0,100.0,13.4,1505.3,324.2,-0.7,1.8,2470.461,13.33,0.027,267.9
2020-12-17T00:31:03,42.805,6.029,-0.096,0.005,-0.042,103.0,105.0,100.0,13.3,1505.3,327.5,-0.7,1.8,2470.464,13.33,0.096,273.0
2020-12-17T00:34:03,42.805,6.029,-0.045,0.007,0.011,102.0,106.0,100.0,13.4,1505.3,325.2,-0.7,1.8,2470.502,13.33,0.045,278.8
2020-12-17T00:37:03,42.805,6.029,-0.061,0.007,0.0,102.0,105.0,101.0,13.4,1505.3,325.4,-0.7,1.8,2470.474,13.33,0.061,276.5
2020-12-17T00:40:03,42.805,6.029,-0.024,-0.005,0.022,102.0,106.0,101.0,13.4,1505.3,326.3,-0.7,1.8,2470.491,13.33,0.024,258.2
2020-12-17T00:43:03,42.805,6.029,-0.007,-0.004,0.015,104.0,107.0,99.0,13.4,1505.3,324.8,-0.7,1.8,2470.496,13.33,0.008,240.3
2020-12-17T00:46:03,42.805,6.029,-0.028,0.002,-0.005,103.0,105.0,100.0,13.4,1505.3,326.6,-0.7,1.8,2470.481,13.33,0.028,274.1
2020-12-17T00:49:03,42.805,6.029,-0.053,-0.012,-0.037,101.0,105.0,100.0,13.4,1505.3,322.9,-0.7,1.8,2470.487,13.33,0.054,257.2
2020-12-17T00:52:03,42.805,6.029,-0.032,0.001,0.014,104.0,105.0,100.0,13.4,1505.3,324.3,-0.7,1.8,2470.482,13.33,0.032,271.8
2020-12-17T00:55:03,42.805,6.029,-0.029,-0.001,-0.026,101.0,105.0,101.0,13.4,1505.3,323.6,-0.7,1.8,2470.452,13.33,0.029,268.0
2020-12-17T00:58:03,42.805,6.029,-0.01,-0.007,0.021,103.0,106.0,99.0,13.4,1505.3,325.2,-0.7,1.8,2470.441,13.33,0.012,235.0
2020-12-17T01:04:03,42.805,6.029,-0.07,-0.043,-0.048,102.0,105.0,101.0,13.4,1505.3,326.3,-0.7,1.8,2470.536,13.31,0.082,238.4
2020-12-17T01:07:03,42.805,6.029,-0.066,0.017,0.02,102.0,105.0,100.0,13.4,1505.3,327.3,-0.7,1.8,2470.489,13.32,0.068,284.4
2020-12-17T01:10:03,42.805,6.029,-0.028,-0.006,-0.009,102.0,106.0,100.0,13.3,1505.3,326.9,-0.7,1.8,2470.46,13.32,0.028,257.9
2020-12-17T01:13:03,42.805,6.029,-0.036,-0.013,-0.003,102.0,106.0,100.0,13.4,1505.3,328.2,-0.7,1.8,2470.493,13.32,0.038,250.1
2020-12-17T01:16:03,42.805,6.029,-0.068,-0.017,0.006,103.0,106.0,98.0,13.4,1505.3,325.3,-0.7,1.8,2470.496,13.32,0.07,256.0
2020-12-17T01:19:03,42.805,6.029,0.007,-0.021,0.014,102.0,106.0,101.0,13.4,1505.3,325.8,-0.7,1.9,2470.49,13.33,0.022,161.6
2020-12-17T01:22:03,42.805,6.029,-0.027,-0.005,0.031,102.0,106.0,100.0,13.4,1505.3,326.4,-0.7,1.8,2470.481,13.33,0.027,259.5
2020-12-17T01:25:03,42.805,6.029,-0.039,-0.001,-0.007,102.0,106.0,102.0,13.4,1505.3,326.5,-0.7,1.8,2470.508,13.33,0.039,268.5
2020-12-17T01:28:03,42.805,6.029,0.001,0.0,0.042,102.0,107.0,100.0,13.4,1505.3,326.6,-0.7,1.8,2470.451,13.33,0.001,90.0
2020-12-17T01:31:03,42.805,6.029,0.005,-0.03,0.032,102.0,106.0,100.0,13.4,1505.3,325.3,-0.7,1.8,2470.405,13.33,0.03,170.5
2020-12-17T01:34:03,42.805,6.029,0.004,0.002,0.041,102.0,105.0,100.0,13.3,1505.3,325.2,-0.7,1.8,2470.469,13.33,0.004,63.4
2020-12-17T01:37:03,42.805,6.029,-0.031,-0.007,0.019,102.0,106.0,100.0,13.4,1505.3,325.7,-0.7,1.8,2470.453,13.33,0.031,257.3
2020-12-17T01:40:03,42.805,6.029,-0.033,-0.012,-0.02,103.0,104.0,100.0,13.4,1505.3,327.1,-0.7,1.8,2470.458,13.33,0.035,250.0
2020-12-17T01:43:03,42.805,6.029,-0.038,0.008,0.002,100.0,106.0,100.0,13.4,1505.3,323.4,-0.6,1.8,2470.439,13.33,0.038,281.9
2020-12-17T01:49:03,42.805,6.029,-0.03,-0.016,0.018,103.0,105.0,99.0,13.4,1505.3,326.0,-0.7,1.8,2470.485,13.31,0.034,241.9
2020-12-17T01:52:03,42.805,6.029,-0.058,-0.012,-0.018,101.0,107.0,100.0,13.3,1505.3,327.5,-0.7,1.8,2470.51,13.32,0.059,258.3
2020-12-17T01:55:03,42.805,6.029,-0.075,-0.022,-0.042,102.0,106.0,99.0,13.4,1505.3,326.8,-0.7,1.8,2470.481,13.32,0.078,253.7
2020-12-17T01:58:03,42.805,6.029,-0.029,-0.005,0.02,102.0,106.0,99.0,13.4,1505.3,325.6,-0.7,1.8,2470.446,13.32,0.029,260.2
2020-12-17T02:04:03,42.805,6.029,-0.02,-0.031,0.009,102.0,105.0,100.0,13.4,1505.3,323.6,-0.7,1.9,2470.485,13.31,0.036,212.8
2020-12-17T02:07:03,42.805,6.029,-0.001,-0.004,-0.007,101.0,105.0,100.0,13.4,1505.3,326.4,-0.7,1.8,2470.532,13.31,0.004,194.0
2020-12-17T02:10:03,42.805,6.029,-0.062,-0.021,-0.021,102.0,107.0,100.0,13.4,1505.3,323.0,-0.7,1.8,2470.47,13.32,0.065,251.3
2020-12-17T02:13:03,42.805,6.029,-0.03,-0.01,0.033,103.0,105.0,100.0,13.3,1505.3,323.0,-0.7,1.9,2470.427,13.32,0.031,251.6
2020-12-17T02:16:03,42.805,6.029,-0.025,-0.007,0.004,102.0,106.0,100.0,13.4,1505.3,325.7,-0.7,1.8,2470.468,13.32,0.025,254.4
2020-12-17T02:19:03,42.805,6.029,-0.016,-0.024,0.01,103.0,105.0,99.0,13.3,1505.3,325.7,-0.7,1.8,2470.477,13.33,0.028,213.7
2020-12-17T02:22:03,42.805,6.029,0.004,0.005,0.019,102.0,106.0,100.0,13.4,1505.3,326.4,-0.7,1.8,2470.468,13.33,0.006,38.7
2020-12-17T02:25:03,42.805,6.029,-0.042,-0.011,0.004,102.0,105.0,100.0,13.3,1505.3,326.6,-0.7,1.8,2470.471,13.33,0.043,255.3
2020-12-17T02:28:03,42.805,6.029,-0.041,0.013,0.008,101.0,105.0,101.0,13.3,1505.3,327.5,-0.7,1.8,2470.425,13.33,0.043,287.6
2020-12-17T02:31:03,42.805,6.029,-0.049,0.005,0.0,102.0,105.0,99.0,13.4,1505.3,323.6,-0.7,1.8,2470.435,13.33,0.049,275.8
2020-12-17T02:34:03,42.805,6.029,-0.055,-0.017,-0.016,102.0,104.0,100.0,13.4,1505.3,325.7,-0.7,1.8,2470.397,13.33,0.057,252.8
2020-12-17T02:37:03,42.805,6.029,-0.013,-0.004,0.011,101.0,107.0,99.0,13.3,1505.3,326.4,-0.7,1.8,2470.468,13.33,0.013,252.9
2020-12-17T02:40:03,42.805,6.029,-0.028,-0.003,0.04,101.0,105.0,101.0,13.4,1505.3,325.1,-0.7,1.8,2470.451,13.33,0.028,263.9
2020-12-17T02:43:03,42.805,6.029,-0.028,0.003,-0.012,103.0,105.0,98.0,13.3,1505.3,327.4,-0.7,1.8,2470.426,13.33,0.028,276.1
2020-12-17T02:46:03,42.805,6.029,-0.039,-0.001,-0.003,102.0,105.0,100.0,13.3,1505.3,326.9,-0.7,1.8,2470.464,13.33,0.039,268.5
2020-12-17T02:49:03,42.805,6.029,-0.029,0.012,0.032,102.0,104.0,100.0,13.3,1505.3,326.8,-0.7,1.8,2470.47,13.33,0.031,292.5
2020-12-17T02:52:03,42.805,6.029,-0.01,0.005,-0.005,103.0,105.0,99.0,13.4,1505.3,326.1,-0.7,1.8,2470.393,13.33,0.011,296.6
2020-12-17T02:55:03,42.805,6.029,-0.017,0.01,0.032,102.0,105.0,100.0,13.4,1505.3,326.4,-0.7,1.8,2470.431,13.33,0.019,300.5
2020-12-17T02:58:03,42.805,6.029,-0.014,0.004,0.006,101.0,105.0,100.0,13.3,1505.3,326.6,-0.7,1.8,2470.416,13.33,0.014,285.9
2020-12-17T03:04:03,42.805,6.029,-0.022,-0.006,0.028,102.0,107.0,99.0,13.4,1505.3,323.0,-0.7,1.8,2470.457,13.31,0.022,254.7
2020-12-17T03:07:03,42.805,6.029,-0.05,-0.025,-0.019,102.0,104.0,99.0,13.4,1505.3,324.5,-0.7,1.8,2470.448,13.32,0.055,243.4
2020-12-17T03:10:03,42.805,6.029,-0.045,-0.013,-0.013,101.0,104.0,101.0,13.4,1505.3,324.1,-0.7,1.8,2470.448,13.32,0.046,253.9
2020-12-17T03:13:03,42.805,6.029,-0.036,0.004,-0.009,102.0,105.0,100.0,13.3,1505.3,326.2,-0.7,1.9,2470.425,13.32,0.036,276.3
2020-12-17T03:16:03,42.805,6.029,-0.051,-0.013,-0.011,101.0,106.0,100.0,13.3,1505.3,324.4,-0.7,1.9,2470.425,13.33,0.052,255.7
2020-12-17T03:19:03,42.805,6.029,-0.026,0.001,0.014,101.0,104.0,100.0,13.4,1505.3,326.2,-0.7,1.8,2470.458,13.33,0.026,272.2
2020-12-17T03:22:03,42.805,6.029,-0.017,0.003,0.019,102.0,105.0,100.0,13.4,1505.3,324.5,-0.7,1.8,2470.432,13.33,0.017,280.0
2020-12-17T03:25:03,42.805,6.029,-0.012,-0.012,0.009,102.0,105.0,99.0,13.4,1505.3,324.7,-0.7,1.9,2470.426,13.33,0.016,225.0
2020-12-17T03:28:03,42.805,6.029,-0.042,0.0,0.006,102.0,104.0,100.0,13.4,1505.3,327.3,-0.7,1.8,2470.411,13.33,0.042,270.0
2020-12-17T03:31:03,42.805,6.029,-0.032,-0.003,0.013,101.0,105.0,100.0,13.4,1505.3,323.5,-0.7,1.8,2470.414,13.33,0.032,264.6
2020-12-17T03:37:03,42.805,6.029,-0.005,0.012,0.057,102.0,105.0,100.0,13.3,1505.3,325.1,-0.7,1.8,2470.467,13.31,0.013,337.4
2020-12-17T03:40:03,42.805,6.029,-0.059,0.0,-0.005,101.0,107.0,100.0,13.4,1505.3,324.8,-0.7,1.8,2470.477,13.32,0.058,270.0
2020-12-17T03:43:03,42.805,6.029,-0.035,-0.001,0.021,102.0,104.0,100.0,13.4,1505.3,324.9,-0.7,1.8,2470.477,13.32,0.035,268.4
2020-12-17T03:46:03,42.805,6.029,-0.011,-0.003,0.044,101.0,107.0,100.0,13.4,1505.3,325.6,-0.7,1.8,2470.463,13.32,0.011,254.7
2020-12-17T03:49:03,42.805,6.029,-0.02,-0.012,-0.02,101.0,106.0,100.0,13.4,1505.3,324.8,-0.7,1.8,2470.465,13.32,0.023,239.0
2020-12-17T03:52:03,42.805,6.029,-0.061,-0.012,0.02,104.0,107.0,100.0,13.3,1505.3,323.4,-0.7,1.8,2470.423,13.33,0.062,258.9
2020-12-17T03:55:03,42.805,6.029,-0.03,0.005,0.017,101.0,106.0,100.0,13.4,1505.3,328.5,-0.7,1.9,2470.443,13.33,0.03,279.5
2020-12-17T03:58:03,42.805,6.029,-0.032,0.002,0.009,102.0,106.0,100.0,13.3,1505.3,326.0,-0.7,1.8,2470.456,13.33,0.032,273.6
2020-12-17T04:04:03,42.805,6.029,-0.042,-0.005,0.004,103.0,104.0,99.0,13.4,1505.3,327.0,-0.7,1.8,2470.515,13.31,0.042,263.2
2020-12-17T04:07:03,42.805,6.029,0.022,0.002,0.042,102.0,106.0,98.0,13.3,1505.3,325.8,-0.7,1.8,2470.5,13.32,0.022,84.8
2020-12-17T04:10:03,42.805,6.029,-0.02,-0.009,0.002,101.0,107.0,99.0,13.4,1505.3,322.7,-0.7,1.8,2470.505,13.32,0.021,245.8
2020-12-17T04:13:03,42.805,6.029,-0.061,0.009,-0.002,103.0,104.0,99.0,13.4,1505.3,325.6,-0.7,1.9,2470.447,13.32,0.061,278.4
2020-12-17T04:16:03,42.805,6.029,-0.061,0.0,-0.025,102.0,107.0,100.0,13.4,1505.3,325.1,-0.7,1.8,2470.441,13.32,0.06,270.0
2020-12-17T04:19:03,42.805,6.029,-0.06,0.003,0.011,101.0,107.0,98.0,13.3,1505.3,323.8,-0.7,1.8,2470.477,13.33,0.06,272.9
2020-12-17T04:22:03,42.805,6.029,-0.004,0.0,0.033,101.0,106.0,99.0,13.4,1505.3,324.9,-0.7,1.8,2470.477,13.33,0.004,270.0
2020-12-17T04:25:03,42.805,6.029,-0.028,0.005,0.01,101.0,108.0,99.0,13.4,1505.3,324.9,-0.7,1.8,2470.491,13.33,0.028,280.1
2020-12-17T04:28:03,42.805,6.029,-0.049,-0.002,-0.007,102.0,106.0,100.0,13.4,1505.3,324.7,-0.7,1.8,2470.496,13.33,0.049,267.7
2020-12-17T04:31:03,42.805,6.029,-0.031,0.009,0.028,101.0,106.0,100.0,13.4,1505.3,326.8,-0.7,1.8,2470.474,13.33,0.032,286.2
2020-12-17T04:34:03,42.805,6.029,-0.038,0.005,-0.007,101.0,105.0,100.0,13.4,1505.3,328.4,-0.7,1.8,2470.428,13.33,0.038,277.5
2020-12-17T04:37:03,42.805,6.029,-0.054,0.015,-0.004,101.0,106.0,100.0,13.4,1505.3,326.5,-0.7,1.9,2470.455,13.33,0.056,285.5
2020-12-17T04:40:03,42.805,6.029,-0.041,0.011,0.021,101.0,107.0,99.0,13.4,1505.3,328.0,-0.7,1.8,2470.477,13.33,0.042,285.0
2020-12-17T04:43:03,42.805,6.029,-0.002,-0.01,0.01,101.0,107.0,99.0,13.4,1505.3,324.6,-0.7,1.8,2470.467,13.33,0.01,191.3
2020-12-17T04:46:03,42.805,6.029,-0.019,0.007,0.015,102.0,106.0,99.0,13.4,1505.3,323.9,-0.7,1.8,2470.478,13.33,0.02,290.2
2020-12-17T04:49:03,42.805,6.029,-0.029,0.0,0.021,100.0,106.0,99.0,13.4,1505.3,324.0,-0.7,1.8,2470.484,13.33,0.028,270.0
2020-12-17T04:52:03,42.805,6.029,-0.024,0.009,0.014,102.0,104.0,98.0,13.4,1505.3,323.7,-0.7,1.8,2470.504,13.33,0.025,290.6
2020-12-17T04:55:03,42.805,6.029,-0.035,0.03,0.036,100.0,108.0,100.0,13.4,1505.3,328.1,-0.7,1.8,2470.508,13.33,0.046,310.6
2020-12-17T04:58:03,42.805,6.029,-0.051,-0.006,-0.002,99.0,107.0,100.0,13.3,1505.3,325.2,-0.7,1.9,2470.507,13.33,0.051,263.3
2020-12-17T05:04:03,42.805,6.029,-0.051,-0.005,0.01,101.0,105.0,99.0,13.4,1505.3,327.1,-0.7,1.8,2470.54,13.31,0.051,264.4
2020-12-17T05:07:03,42.805,6.029,-0.029,-0.009,0.003,102.0,105.0,100.0,13.4,1505.3,325.7,-0.7,1.8,2470.517,13.32,0.03,252.8
2020-12-17T05:10:03,42.805,6.029,-0.053,-0.008,-0.041,100.0,106.0,100.0,13.4,1505.3,327.6,-0.7,1.8,2470.522,13.32,0.053,261.4
2020-12-17T05:13:03,42.805,6.029,0.026,0.016,0.04,101.0,105.0,99.0,13.4,1505.3,326.8,-0.7,1.8,2470.536,13.32,0.03,58.4
2020-12-17T05:16:03,42.805,6.029,-0.038,-0.014,-0.023,100.0,108.0,99.0,13.4,1505.3,328.1,-0.7,1.8,2470.553,13.33,0.04,249.8
2020-12-17T05:19:03,42.805,6.029,-0.019,-0.007,0.026,101.0,105.0,99.0,13.4,1505.3,326.4,-0.7,1.8,2470.524,13.33,0.02,249.8
2020-12-17T05:22:03,42.805,6.029,-0.064,-0.007,0.006,101.0,106.0,99.0,13.4,1505.3,328.1,-0.7,1.8,2470.522,13.33,0.064,263.8
2020-12-17T05:25:03,42.805,6.029,-0.067,-0.01,-0.037,101.0,106.0,99.0,13.4,1505.3,326.4,-0.7,1.8,2470.555,13.33,0.067,261.5
2020-12-17T05:28:03,42.805,6.029,-0.043,-0.006,0.034,101.0,106.0,99.0,13.3,1505.3,327.9,-0.7,1.8,2470.516,13.33,0.043,262.1
2020-12-17T05:31:03,42.805,6.029,-0.009,-0.012,0.037,101.0,106.0,99.0,13.3,1505.3,325.3,-0.7,1.9,2470.515,13.33,0.015,216.9
2020-12-17T05:34:03,42.805,6.029,-0.047,0.0,-0.003,100.0,105.0,99.0,13.4,1505.3,327.1,-0.7,1.8,2470.55,13.33,0.047,270.0
2020-12-17T05:37:03,42.805,6.029,-0.044,0.004,-0.01,101.0,106.0,99.0,13.3,1505.3,324.6,-0.7,1.8,2470.52,13.33,0.044,275.2
2020-12-17T05:40:03,42.805,6.029,-0.03,0.004,0.01,102.0,108.0,100.0,13.4,1505.3,328.2,-0.7,1.9,2470.575,13.33,0.03,277.6
2020-12-17T05:43:03,42.805,6.029,-0.034,0.002,0.025,100.0,107.0,100.0,13.4,1505.3,325.6,-0.7,1.8,2470.587,13.33,0.034,273.4
2020-12-17T05:46:03,42.805,6.029,0.0,0.018,0.034,101.0,106.0,99.0,13.4,1505.3,328.2,-0.7,1.8,2470.567,13.33,0.018,0.0
2020-12-17T05:49:03,42.805,6.029,-0.037,-0.004,-0.032,101.0,107.0,100.0,13.3,1505.3,325.7,-0.6,1.8,2470.553,13.33,0.037,263.8
2020-12-17T05:52:03,42.805,6.029,-0.015,-0.006,0.003,101.0,107.0,99.0,13.3,1505.3,327.7,-0.7,1.8,2470.576,13.33,0.016,248.2
2020-12-17T05:55:03,42.805,6.029,-0.02,-0.004,0.034,102.0,106.0,99.0,13.3,1505.3,326.5,-0.7,1.8,2470.558,13.33,0.02,258.7
2020-12-17T05:58:03,42.805,6.029,0.005,-0.011,0.014,101.0,107.0,99.0,13.4,1505.3,327.3,-0.7,1.8,2470.55,13.33,0.012,155.6
2020-12-17T06:04:03,42.805,6.029,-0.017,-0.004,0.001,101.0,106.0,100.0,13.4,1505.3,328.5,-0.7,1.8,2470.615,13.31,0.017,256.8
2020-12-17T06:07:03,42.805,6.029,-0.026,0.015,0.013,101.0,105.0,99.0,13.4,1505.3,327.3,-0.7,1.8,2470.595,13.32,0.03,300.0
2020-12-17T06:10:03,42.805,6.029,-0.022,0.022,0.027,101.0,106.0,99.0,13.3,1505.3,326.5,-0.7,1.9,2470.588,13.32,0.031,315.0
2020-12-17T06:13:03,42.805,6.029,-0.045,-0.011,0.01,102.0,106.0,99.0,13.4,1505.3,323.2,-0.7,1.8,2470.615,13.32,0.046,256.3
2020-12-17T06:16:03,42.805,6.029,0.009,0.025,0.063,101.0,106.0,99.0,13.4,1505.3,324.5,-0.7,1.8,2470.607,13.33,0.026,19.8
2020-12-17T06:19:03,42.805,6.029,-0.003,0.019,0.046,102.0,106.0,99.0,13.4,1505.3,326.2,-0.7,1.9,2470.617,13.33,0.019,351.0
2020-12-17T06:22:03,42.805,6.029,-0.027,0.01,0.031,102.0,106.0,100.0,13.4,1505.3,326.2,-0.7,1.8,2470.619,13.33,0.028,290.3
2020-12-17T06:25:03,42.805,6.029,-0.004,-0.015,0.045,102.0,105.0,100.0,13.3,1505.3,327.8,-0.7,1.8,2470.589,13.33,0.015,194.9
2020-12-17T06:28:03,42.805,6.029,-0.034,-0.002,0.039,102.0,105.0,99.0,13.4,1505.3,325.6,-0.7,1.9,2470.625,13.33,0.034,266.6
